Location: Cowley
(49.5667°N, 114.0667°W)
Time: 11:25:33
(UTC+00:00)

Envisat - Pass Details

Date: 01 December 2021
Orbit: 764 x 766 km, 98.2° (Epoch: 25 January)

Event Time Altitude Azimuth Distance (km) Brightness Sun altitude
Rises 14:02:22 0° 5° (N) 3,247 6.1 -10.8°
Reaches altitude 10° 14:05:01 10° 353° (N) 2,316 5.2 -10.4°
Maximum altitude 14:09:06 25° 299° (WNW) 1,509 3.9 -9.8°
Drops below altitude 10° 14:13:12 10° 245° (WSW) 2,303 5.1 -9.2°
Sets 14:15:50 0° 233° (SW) 3,225 5.9 -8.8°
